Regional Weather Roundup
Issued by NWS

Home | Current Version | Previous Version | Graphics & Text | Print | Product List | Glossary On
Versions: 1 2 3 4 5 6 7 8 9 10 11 12 13 14 15 16 17 18 19 20 21 22 23 24 25 26 27 28 29 30 31 32 33 34 35 36 37 38 39 40 41 42 43 44 45 46 47 48 49 50
927
ASUS45 KABQ 202001
RWRNM
NEW MEXICO REGIONAL WEATHER ROUNDUP
NATIONAL WEATHER SERVICE ALBUQUERQUE NM
100 PM MST SAT JAN 20 2018

NOTE: "FAIR" MEANS FEW OR NO CLOUDS BELOW 12,000 FEET AGL WITH NO
       SIGNIFICANT WEATHER OR OBSTRUCTIONS TO VISION.

      THIS PRODUCT IS RELEASED AS TWO VERSIONS.  ONE VERSION NEAR
      THE TOP OF THE HOUR CONTAINING PRELIMINARY DATA FROM ALBUQUERQUE
      AND OTHER STATIONS.  A FINAL VERSION WITH ADDITIONAL DATA IS
      ISSUED ABOUT 10 MINUTES AFTER THE HOUR.

NMZ501-503-504-510>518-202100-
NORTHWEST PLATEAU/NORTHCENTRAL MOUNTAINS

CITY           SKY/WX    TMP DP  RH WIND       PRES   REMARKS
FARMINGTON     CLOUDY    56  18  22 S20G29    29.78F
LOS ALAMOS     FAIR      50  12  21 S14G23    29.91F
SANTA FE       FAIR      54  14  20 SW14G21   29.90F
TAOS           FAIR      53  15  22 SW10      29.92F
ANGEL FIRE     FAIR      48  13  24 SW17G24   29.92F

$$
NMZ402-403-502-505>509-202100-
WESTCENTRAL MOUNTAINS/SOUTHWEST MOUNTAINS

CITY           SKY/WX    TMP DP  RH WIND       PRES   REMARKS
GALLUP         FAIR      54  22  28 SW24G35   29.82F
GRANTS         FAIR      56  17  21 S18G29    29.87F
SILVER CITY    FAIR      59  19  21 SW9       29.94F

$$
NMZ407-409-411-412-202100-
SOUTHERN DESERTS

CITY           SKY/WX    TMP DP  RH WIND       PRES   REMARKS
DEMING         FAIR      65  21  18 W13G22    29.92F
LAS CRUCES     FAIR      65  19  17 SW13G21   29.95F
HOLLOMAN AFB   FAIR      67  16  14 S12       29.93F
ALAMOGORDO     FAIR      64  16  15 S10G17    29.93F
T OR C         FAIR      65  17  15 S21G31    29.86F

$$
NMZ519>523-202100-
CENTRAL VALLEYS/CENTRAL HIGHLANDS

CITY           SKY/WX    TMP DP  RH WIND       PRES   REMARKS
ALBUQUERQUE    FAIR      53  17  24 SW12      29.89F
DOUBLE EAGLE   MOSUNNY   52  16  24 SE12      29.91F
MORIARTY ARPT  FAIR      62  14  15 S18       29.89F
CLINES CORNERS FAIR      57  12  17 SW26G35   29.90F
BELEN          FAIR      58  15  18 S16       29.88F
SOCORRO        FAIR      61  16  17 S16G24    29.87F

$$
NMZ524>526-539-540-202100-
SOUTHCENTRAL MOUNTAINS

CITY           SKY/WX    TMP DP  RH WIND       PRES   REMARKS
RUIDOSO        NOT AVBL

$$
NMZ527>531-202100-
NORTHEAST HIGHLANDS/NORTHEAST PLAINS

CITY           SKY/WX    TMP DP  RH WIND       PRES   REMARKS
LAS VEGAS      FAIR      59  12  15 SW29G37   29.84F
RATON          FAIR      63  16  16 SW13      29.77F
CLAYTON        FAIR      70  15  12 S23       29.73F

$$
NMZ532>537-202100-
EASTCENTRAL PLAINS

CITY           SKY/WX    TMP DP  RH WIND       PRES   REMARKS
TUCUMCARI      FAIR      73  13  10 W23       29.76F
CANNON AFB     FAIR      69  14  12 W21       29.83F
CLOVIS AIRPORT FAIR      69  15  12 W16G26    29.83F

$$
NMZ028-029-538-202100-
SOUTHEAST PLAINS

CITY           SKY/WX    TMP DP  RH WIND       PRES   REMARKS
ROSWELL        FAIR      69  19  15 SE8       29.82F
ARTESIA        FAIR      73  18  12 SW29G36   29.82F
CARLSBAD       FAIR      73  21  14 W22G31    29.85F
HOBBS          SUNNY     72  12  10 W24G31    29.87F


$$




USA.gov is the U.S. government's official web portal to all federal, state and local government web resources and services.